Tracking 19288 objects as of 20-Nov-2018
HD Live streaming from Space Station
objects crossing your sky now

OPS 1427 (OV3-4)

Track OPS 1427 (OV3-4) now!
10-day predictions
OPS 1427 (OV3-4) is classified as:


NORAD ID: 2201
Int'l Code: 1966-052A
Perigee: 646.4 km
Apogee: 4,696.6 km
Inclination: 40.9 °
Period: 142.6 minutes
Semi major axis: 9042 km
RCS: 0.817 m2 (medium)
Launch date: June 10, 1966
Source: United States (US)
Launch site: WALLOPS ISLAND (WLPIS)
aabbcc
Your satellite tracking list
Your tracking list is empty




NASA's NSSDC Master Catalog

Two Line Element Set (TLE):
1  2201U 66052A   18324.05434279 -.00000298  00000-0 -36403-3 0  9996
2  2201  40.8760 251.5771 2239522 351.9485   5.0231 10.09647582932311
Source of the keplerian elements: AFSPC